QPF
0.02 0.03 0.05 0.07 0.07 0.09 0.09 0.09 0.10 0.10 0.11 0.11 0.11 0.10 0.10 0.11 0.14 0.15 0.14 0.14 0.14 0.14 0.14 0.14 0.15 0.17 0.18 0.17 0.16 0.14 0.13 0.13 0.13 0.11 0.10 0.07 0.07 0.06 0.05 0.04 0.05 0.06 0.05
0.02 0.02 0.04 0.07 0.09 0.07 0.07 0.07 0.10 0.11 0.09 0.10 0.12 0.10 0.09 0.10 0.14 0.15 0.14 0.11 0.10 0.12 0.13 0.15 0.18 0.20 0.19 0.17 0.15 0.13 0.13 0.14 0.12 0.11 0.10 0.08 0.08 0.07 0.06 0.06 0.05 0.06 0.05
0.01 0.01 0.03 0.05 0.08 0.07 0.06 0.07 0.08 0.08 0.08 0.11 0.12 0.10 0.10 0.10 0.13 0.14 0.14 0.13 0.12 0.15 0.18 0.20 0.21 0.22 0.20 0.17 0.14 0.14 0.14 0.15 0.14 0.12 0.11 0.11 0.09 0.07 0.06 0.06 0.06 0.07 0.05
0.02 0.02 0.03 0.04 0.04 0.05 0.05 0.05 0.06 0.06 0.06 0.06 0.08 0.10 0.11 0.11 0.12 0.12 0.13 0.15 0.16 0.16 0.16 0.16 0.15 0.14 0.14 0.13 0.11 0.12 0.13 0.14 0.13 0.12 0.12 0.12 0.11 0.10 0.10 0.10 0.09 0.09 0.08
0.03 0.02 0.04 0.06 0.05 0.04 0.04 0.05 0.06 0.06 0.06 0.06 0.07 0.07 0.07 0.07 0.08 0.09 0.11 0.13 0.14 0.15 0.14 0.12 0.11 0.11 0.11 0.11 0.11 0.12 0.13 0.14 0.15 0.16 0.15 0.15 0.14 0.15 0.15 0.13 0.13 0.13 0.13
0.04 0.04 0.04 0.04 0.05 0.03 0.03 0.04 0.04 0.05 0.05 0.06 0.06 0.06 0.06 0.05 0.06 0.07 0.08 0.10 0.10 0.12 0.11 0.09 0.08 0.09 0.09 0.10 0.10 0.09 0.10 0.11 0.14 0.18 0.20 0.19 0.18 0.18 0.18 0.17 0.16 0.15 0.16
0.02 0.02 0.03 0.03 0.03 0.03 0.03 0.03 0.04 0.06 0.06 0.07 0.08 0.06 0.05 0.04 0.04 0.05 0.06 0.06 0.08 0.09 0.10 0.09 0.08 0.08 0.09 0.08 0.08 0.08 0.09 0.12 0.15 0.17 0.17 0.16 0.17 0.17 0.18 0.19 0.20 0.20 0.20
0.01 0.02 0.03 0.02 0.02 0.02 0.03 0.03 0.05 0.05 0.08 0.09 0.09 0.11 0.11 0.10 0.11 0.09 0.11 0.12 0.12 0.11 0.12 0.13 0.13 0.12 0.12 0.11 0.10 0.10 0.12 0.13 0.14 0.12 0.11 0.12 0.15 0.16 0.17 0.19 0.22 0.23 0.23
0.02 0.01 0.02 0.01 0.01 0.01 0.02 0.04 0.04 0.04 0.07 0.06 0.07 0.06 0.08 0.10 0.13 0.12 0.11 0.11 0.12 0.12 0.12 0.12 0.12 0.11 0.11 0.11 0.09 0.10 0.12 0.12 0.12 0.14 0.16 0.18 0.19 0.19 0.20 0.23 0.25 0.23 0.22
0.01 0.01 0.01 0.01 0.01 0.01 0.02 0.02 0.02 0.02 0.03 0.03 0.04 0.04 0.05 0.06 0.07 0.05 0.04 0.03 0.04 0.05 0.06 0.07 0.07 0.07 0.07 0.07 0.07 0.08 0.10 0.13 0.16 0.19 0.21 0.21 0.18 0.16 0.14 0.11 0.11 0.11 0.11
0.01 0.01 0.01 0.00 0.01 0.02 0.02 0.02 0.02 0.02 0.02 0.02 0.02 0.03 0.04 0.04 0.04 0.03 0.02 0.02 0.02 0.03 0.03 0.04 0.04 0.05 0.05 0.05 0.06 0.07 0.10 0.10 0.11 0.12 0.12 0.11 0.09 0.08 0.06 0.05 0.04 0.04 0.04
0.01 0.01 0.01 0.01 0.01 0.02 0.02 0.02 0.02 0.02 0.02 0.02 0.02 0.02 0.02 0.02 0.02 0.02 0.02 0.03 0.03 0.03 0.03 0.03 0.03 0.04 0.05 0.05 0.05 0.06 0.07 0.08 0.07 0.08 0.07 0.06 0.05 0.04 0.04 0.03 0.02 0.02 0.01
0.02 0.02 0.02 0.01 0.03 0.04 0.05 0.05 0.03 0.02 0.02 0.02 0.02 0.02 0.01 0.01 0.02 0.02 0.03 0.03 0.04 0.03 0.03 0.03 0.02 0.02 0.03 0.03 0.04 0.04 0.04 0.04 0.04 0.04 0.04 0.04 0.02 0.02 0.01 0.01 0.00 0.00 0.00
0.02 0.02 0.01 0.02 0.03 0.04 0.04 0.03 0.02 0.01 0.01 0.01 0.01 0.01 0.01 0.01 0.01 0.02 0.02 0.03 0.04 0.04 0.04 0.03 0.02 0.01 0.02 0.02 0.03 0.03 0.03 0.02 0.02 0.01 0.01 0.01 0.00 0.00 0.00 0.00 0.00 0.00 0.00
0.02 0.01 0.01 0.01 0.01 0.01 0.01 0.01 0.01 0.01 0.01 0.01 0.01 0.01 0.01 0.01 0.01 0.01 0.02 0.02 0.02 0.02 0.02 0.02 0.01 0.01 0.01 0.01 0.01 0.02 0.02 0.01 0.00 0.00 0.00 0.00 0.00 0.00 0.00 0.00 0.00 0.00 0.00
0.02 0.01 0.02 0.01 0.01 0.01 0.01 0.01 0.01 0.01 0.01 0.00 0.00 0.00 0.01 0.01 0.01 0.01 0.01 0.01 0.01 0.01 0.01 0.01 0.01 0.01 0.01 0.01 0.01 0.00 0.00 0.00 0.00 0.00 0.00 0.00 0.00 0.00 0.00 0.00 0.00 0.00 0.00
0.02 0.01 0.01 0.02 0.02 0.01 0.01 0.01 0.01 0.00 0.00 0.00 0.00 0.00 0.01 0.01 0.01 0.01 0.01 0.01 0.00 0.00 0.00 0.01 0.01 0.01 0.00 0.00 0.00 0.00 0.00 0.00 0.00 0.00 0.00 0.00 0.00 0.00 0.00 0.00 0.00 0.00 0.00
0.01 0.01 0.01 0.01 0.01 0.01 0.00 0.00 0.00 0.00 0.00 0.00 0.00 0.00 0.00 0.00 0.00 0.01 0.01 0.01 0.00 0.00 0.00 0.00 0.00 0.00 0.00 0.00 0.00 0.00 0.00 0.00 0.00 0.00 0.00 0.00 0.00 0.00 0.00 0.00 0.00 0.00 0.00
0.01 0.01 0.01 0.01 0.01 0.01 0.00 0.00 0.00 0.00 0.00 0.00 0.00 0.00 0.00 0.00 0.00 0.00 0.00 0.00 0.00 0.00 0.00 0.00 0.00 0.00 0.00 0.00 0.00 0.00 0.00 0.00 0.00 0.00 0.00 0.00 0.00 0.00 0.00 0.00 0.00 0.00 0.00
0.01 0.01 0.01 0.01 0.01 0.01 0.01 0.00 0.00 0.00 0.00 0.00 0.00 0.00 0.00 0.00 0.01 0.01 0.00 0.00 0.00 0.00 0.00 0.00 0.00 0.00 0.00 0.00 0.00 0.00 0.00 0.00 0.00 0.00 0.00 0.00 0.00 0.00 0.00 0.00 0.01 0.01 0.01
0.01 0.01 0.01 0.01 0.01 0.01 0.01 0.01 0.01 0.01 0.00 0.00 0.00 0.00 0.00 0.00 0.00 0.00 0.00 0.00 0.00 0.00 0.00 0.00 0.00 0.00 0.00 0.00 0.00 0.00 0.00 0.00 0.00 0.00 0.00 0.00 0.00 0.00 0.00 0.00 0.00 0.00 0.00
0.01 0.01 0.01 0.01 0.01 0.01 0.01 0.02 0.03 0.03 0.02 0.01 0.01 0.00 0.00 0.00 0.00 0.00 0.00 0.00 0.00 0.00 0.00 0.00 0.00 0.00 0.00 0.00 0.00 0.00 0.00 0.00 0.00 0.00 0.00 0.00 0.00 0.00 0.00 0.00 0.00 0.00 0.00
0.01 0.01 0.01 0.01 0.01 0.02 0.02 0.03 0.05 0.04 0.03 0.03 0.01 0.01 0.00 0.00 0.00 0.00 0.00 0.00 0.00 0.00 0.00 0.00 0.00 0.00 0.00 0.00 0.00 0.00 0.00 0.00 0.00 0.00 0.00 0.00 0.00 0.00 0.00 0.00 0.00 0.00 0.00
0.01 0.01 0.01 0.01 0.01 0.01 0.01 0.02 0.02 0.02 0.02 0.02 0.01 0.01 0.00 0.00 0.00 0.00 0.00 0.01 0.00 0.00 0.00 0.00 0.00 0.00 0.00 0.00 0.00 0.00 0.00 0.00 0.00 0.00 0.00 0.00 0.00 0.00 0.00 0.00 0.00 0.00 0.00
0.01 0.01 0.01 0.01 0.01 0.01 0.01 0.01 0.01 0.01 0.01 0.01 0.01 0.00 0.00 0.00 0.00 0.01 0.01 0.00 0.00 0.00 0.00 0.00 0.00 0.00 0.00 0.00 0.00 0.00 0.00 0.00 0.00 0.00 0.00 0.00 0.00 0.00 0.00 0.00 0.00 0.00 0.00
0.01 0.01 0.01 0.01 0.01 0.01 0.01 0.01 0.01 0.01 0.01 0.00 0.00 0.00 0.00 0.00 0.00 0.00 0.00 0.00 0.00 0.00 0.00 0.00 0.00 0.00 0.00 0.00 0.00 0.00 0.00 0.00 0.00 0.00 0.00 0.00 0.00 0.00 0.00 0.00 0.00 0.00 0.00
MSLP
1013.92 1014.26 1014.58 1014.85 1015.03 1015.10 1015.06 1014.94 1014.76 1014.57 1014.40 1014.28 1014.22 1014.21 1014.22 1014.24 1014.24 1014.21 1014.15 1014.06 1013.99 1013.95 1013.97 1014.08 1014.26 1014.50 1014.77 1015.03 1015.23 1015.34 1015.35 1015.26 1015.09 1014.89 1014.71 1014.61 1014.61 1014.74 1015.01 1015.38 1015.82 1016.28 1016.71
1013.81 1014.14 1014.47 1014.77 1014.98 1015.09 1015.10 1015.02 1014.88 1014.73 1014.58 1014.47 1014.40 1014.36 1014.35 1014.32 1014.25 1014.15 1013.99 1013.81 1013.63 1013.47 1013.38 1013.38 1013.46 1013.63 1013.84 1014.06 1014.25 1014.37 1014.42 1014.39 1014.30 1014.20 1014.13 1014.14 1014.27 1014.52 1014.90 1015.39 1015.93 1016.48 1016.99
1013.77 1014.13 1014.49 1014.82 1015.08 1015.25 1015.32 1015.30 1015.22 1015.10 1014.99 1014.90 1014.83 1014.79 1014.74 1014.66 1014.54 1014.36 1014.13 1013.85 1013.56 1013.29 1013.08 1012.96 1012.93 1012.98 1013.10 1013.25 1013.40 1013.50 1013.56 1013.57 1013.55 1013.54 1013.58 1013.71 1013.96 1014.35 1014.87 1015.48 1016.13 1016.79 1017.39
1013.81 1014.22 1014.63 1015.02 1015.34 1015.57 1015.70 1015.75 1015.72 1015.66 1015.59 1015.52 1015.46 1015.40 1015.33 1015.23 1015.06 1014.82 1014.52 1014.16 1013.79 1013.42 1013.11 1012.87 1012.73 1012.67 1012.68 1012.74 1012.82 1012.88 1012.92 1012.95 1012.97 1013.03 1013.15 1013.39 1013.76 1014.27 1014.90 1015.62 1016.39 1017.14 1017.83
1013.92 1014.40 1014.88 1015.33 1015.71 1016.00 1016.20 1016.30 1016.33 1016.32 1016.27 1016.23 1016.18 1016.12 1016.03 1015.90 1015.71 1015.44 1015.10 1014.70 1014.27 1013.84 1013.45 1013.13 1012.89 1012.74 1012.65 1012.62 1012.62 1012.62 1012.63 1012.64 1012.67 1012.77 1012.95 1013.26 1013.71 1014.30 1015.01 1015.81 1016.65 1017.47 1018.23
1014.09 1014.64 1015.19 1015.70 1016.14 1016.48 1016.73 1016.88 1016.95 1016.97 1016.95 1016.92 1016.88 1016.81 1016.72 1016.59 1016.38 1016.11 1015.76 1015.35 1014.91 1014.47 1014.06 1013.69 1013.40 1013.18 1013.02 1012.92 1012.84 1012.78 1012.74 1012.72 1012.74 1012.83 1013.03 1013.37 1013.84 1014.46 1015.20 1016.03 1016.90 1017.75 1018.52
1014.31 1014.93 1015.54 1016.09 1016.57 1016.95 1017.23 1017.40 1017.50 1017.54 1017.53 1017.51 1017.46 1017.40 1017.31 1017.18 1016.99 1016.73 1016.42 1016.04 1015.64 1015.22 1014.83 1014.48 1014.17 1013.93 1013.74 1013.58 1013.46 1013.35 1013.26 1013.19 1013.18 1013.25 1013.42 1013.73 1014.19 1014.78 1015.49 1016.29 1017.12 1017.94 1018.69
1014.58 1015.25 1015.90 1016.48 1016.97 1017.36 1017.64 1017.83 1017.93 1017.97 1017.97 1017.94 1017.90 1017.84 1017.75 1017.63 1017.47 1017.26 1016.99 1016.68 1016.35 1016.00 1015.67 1015.37 1015.10 1014.88 1014.69 1014.52 1014.37 1014.23 1014.11 1014.01 1013.95 1013.97 1014.10 1014.34 1014.73 1015.24 1015.87 1016.58 1017.32 1018.05 1018.73
1014.89 1015.59 1016.25 1016.83 1017.32 1017.71 1017.98 1018.16 1018.25 1018.29 1018.28 1018.24 1018.20 1018.14 1018.07 1017.97 1017.84 1017.68 1017.48 1017.25 1017.00 1016.74 1016.50 1016.27 1016.07 1015.89 1015.73 1015.59 1015.44 1015.30 1015.16 1015.04 1014.95 1014.92 1014.97 1015.14 1015.42 1015.83 1016.33 1016.91 1017.52 1018.13 1018.70
1015.24 1015.95 1016.60 1017.17 1017.64 1018.01 1018.26 1018.43 1018.51 1018.54 1018.52 1018.49 1018.44 1018.39 1018.33 1018.26 1018.17 1018.05 1017.92 1017.76 1017.59 1017.41 1017.25 1017.10 1016.97 1016.85 1016.74 1016.63 1016.52 1016.40 1016.26 1016.13 1016.02 1015.95 1015.95 1016.03 1016.21 1016.49 1016.86 1017.29 1017.75 1018.22 1018.67
1015.62 1016.32 1016.95 1017.50 1017.95 1018.29 1018.53 1018.69 1018.77 1018.80 1018.79 1018.76 1018.72 1018.68 1018.64 1018.58 1018.52 1018.45 1018.35 1018.25 1018.13 1018.02 1017.91 1017.82 1017.74 1017.67 1017.61 1017.55 1017.47 1017.38 1017.28 1017.16 1017.06 1016.97 1016.93 1016.94 1017.03 1017.19 1017.43 1017.72 1018.04 1018.37 1018.70
1015.98 1016.66 1017.28 1017.81 1018.24 1018.58 1018.82 1018.98 1019.08 1019.12 1019.13 1019.12 1019.11 1019.08 1019.06 1019.03 1018.98 1018.92 1018.85 1018.76 1018.67 1018.57 1018.49 1018.41 1018.36 1018.32 1018.29 1018.26 1018.22 1018.17 1018.11 1018.03 1017.95 1017.87 1017.81 1017.79 1017.81 1017.89 1018.02 1018.19 1018.40 1018.62 1018.84
1016.30 1016.96 1017.56 1018.09 1018.52 1018.87 1019.13 1019.32 1019.44 1019.53 1019.57 1019.60 1019.62 1019.63 1019.62 1019.60 1019.57 1019.51 1019.43 1019.33 1019.21 1019.10 1018.99 1018.90 1018.83 1018.78 1018.75 1018.74 1018.74 1018.73 1018.71 1018.68 1018.64 1018.60 1018.56 1018.53 1018.52 1018.55 1018.61 1018.70 1018.82 1018.96 1019.11
1016.51 1017.17 1017.77 1018.30 1018.75 1019.12 1019.42 1019.65 1019.83 1019.97 1020.07 1020.15 1020.21 1020.26 1020.28 1020.28 1020.24 1020.17 1020.06 1019.93 1019.77 1019.60 1019.44 1019.29 1019.18 1019.10 1019.05 1019.04 1019.05 1019.08 1019.11 1019.13 1019.15 1019.16 1019.15 1019.14 1019.14 1019.15 1019.17 1019.22 1019.29 1019.39 1019.50
1016.60 1017.25 1017.85 1018.39 1018.87 1019.28 1019.62 1019.91 1020.15 1020.36 1020.53 1020.67 1020.79 1020.88 1020.94 1020.95 1020.92 1020.84 1020.70 1020.52 1020.31 1020.08 1019.84 1019.63 1019.45 1019.32 1019.24 1019.21 1019.23 1019.28 1019.36 1019.44 1019.51 1019.58 1019.62 1019.65 1019.67 1019.69 1019.71 1019.74 1019.79 1019.86 1019.96
1016.52 1017.17 1017.77 1018.33 1018.83 1019.28 1019.67 1020.02 1020.32 1020.59 1020.83 1021.04 1021.22 1021.36 1021.46 1021.50 1021.49 1021.40 1021.25 1021.04 1020.79 1020.50 1020.21 1019.93 1019.69 1019.51 1019.40 1019.36 1019.38 1019.45 1019.56 1019.68 1019.81 1019.93 1020.03 1020.10 1020.14 1020.18 1020.20 1020.23 1020.28 1020.35 1020.44
1016.31 1016.94 1017.54 1018.10 1018.62 1019.09 1019.53 1019.92 1020.28 1020.60 1020.90 1021.17 1021.40 1021.60 1021.75 1021.83 1021.84 1021.78 1021.64 1021.43 1021.16 1020.85 1020.53 1020.22 1019.95 1019.75 1019.61 1019.56 1019.58 1019.67 1019.80 1019.96 1020.13 1020.29 1020.42 1020.52 1020.59 1020.63 1020.67 1020.70 1020.74 1020.80 1020.89
1015.99 1016.59 1017.16 1017.72 1018.24 1018.73 1019.18 1019.61 1020.00 1020.37 1020.71 1021.03 1021.31 1021.56 1021.75 1021.89 1021.95 1021.93 1021.83 1021.65 1021.41 1021.13 1020.82 1020.52 1020.26 1020.06 1019.93 1019.88 1019.91 1020.01 1020.16 1020.34 1020.53 1020.70 1020.84 1020.95 1021.03 1021.07 1021.09 1021.12 1021.15 1021.20 1021.28
1015.62 1016.17 1016.72 1017.25 1017.76 1018.24 1018.70 1019.13 1019.55 1019.94 1020.31 1020.66 1020.98 1021.27 1021.51 1021.70 1021.83 1021.88 1021.84 1021.74 1021.56 1021.34 1021.10 1020.85 1020.64 1020.47 1020.37 1020.34 1020.39 1020.50 1020.65 1020.83 1021.01 1021.18 1021.31 1021.41 1021.46 1021.48 1021.49 1021.48 1021.49 1021.52 1021.58
1015.27 1015.77 1016.27 1016.76 1017.25 1017.72 1018.17 1018.60 1019.02 1019.41 1019.79 1020.16 1020.51 1020.83 1021.12 1021.36 1021.55 1021.68 1021.73 1021.72 1021.65 1021.53 1021.38 1021.23 1021.09 1020.99 1020.94 1020.94 1021.01 1021.12 1021.26 1021.42 1021.58 1021.71 1021.81 1021.86 1021.88 1021.86 1021.83 1021.79 1021.76 1021.76 1021.79
1014.98 1015.43 1015.89 1016.35 1016.81 1017.27 1017.70 1018.13 1018.54 1018.93 1019.31 1019.68 1020.03 1020.38 1020.70 1020.99 1021.24 1021.44 1021.59 1021.68 1021.72 1021.72 1021.69 1021.65 1021.60 1021.58 1021.59 1021.63 1021.71 1021.82 1021.94 1022.06 1022.17 1022.25 1022.29 1022.29 1022.25 1022.19 1022.11 1022.03 1021.96 1021.92 1021.92
1014.80 1015.20 1015.63 1016.07 1016.52 1016.96 1017.40 1017.81 1018.21 1018.60 1018.97 1019.33 1019.68 1020.03 1020.36 1020.68 1020.98 1021.24 1021.48 1021.67 1021.82 1021.94 1022.03 1022.09 1022.15 1022.21 1022.27 1022.35 1022.44 1022.53 1022.61 1022.69 1022.73 1022.74 1022.72 1022.65 1022.55 1022.43 1022.31 1022.19 1022.09 1022.02 1021.99
1014.72 1015.10 1015.52 1015.96 1016.41 1016.86 1017.30 1017.72 1018.11 1018.49 1018.84 1019.19 1019.52 1019.85 1020.18 1020.51 1020.84 1021.15 1021.44 1021.72 1021.97 1022.18 1022.38 1022.54 1022.69 1022.82 1022.93 1023.03 1023.11 1023.18 1023.22 1023.23 1023.21 1023.15 1023.05 1022.92 1022.77 1022.60 1022.43 1022.28 1022.16 1022.07 1022.02
1014.73 1015.11 1015.54 1015.99 1016.46 1016.93 1017.38 1017.81 1018.21 1018.58 1018.92 1019.24 1019.54 1019.85 1020.16 1020.48 1020.81 1021.14 1021.48 1021.81 1022.13 1022.43 1022.71 1022.96 1023.17 1023.36 1023.50 1023.62 1023.69 1023.73 1023.73 1023.68 1023.59 1023.46 1023.30 1023.11 1022.91 1022.70 1022.51 1022.34 1022.20 1022.10 1022.04
1014.79 1015.19 1015.63 1016.11 1016.61 1017.11 1017.58 1018.02 1018.42 1018.78 1019.10 1019.39 1019.67 1019.94 1020.22 1020.51 1020.83 1021.18 1021.53 1021.91 1022.28 1022.64 1022.98 1023.29 1023.57 1023.80 1023.97 1024.10 1024.16 1024.17 1024.13 1024.03 1023.89 1023.71 1023.49 1023.26 1023.02 1022.79 1022.58 1022.40 1022.26 1022.15 1022.09
1014.87 1015.29 1015.76 1016.26 1016.79 1017.31 1017.80 1018.24 1018.64 1018.98 1019.28 1019.54 1019.78 1020.01 1020.26 1020.53 1020.83 1021.17 1021.55 1021.95 1022.36 1022.77 1023.17 1023.54 1023.86 1024.13 1024.33 1024.47 1024.54 1024.53 1024.46 1024.33 1024.15 1023.93 1023.69 1023.42 1023.16 1022.92 1022.70 1022.51 1022.36 1022.25 1022.18
Thickness
5772 5769 5765 5763 5760 5757 5755 5753 5752 5752 5751 5750 5750 5748 5746 5745 5743 5742 5741 5740 5739 5738 5737 5736 5734 5734 5734 5733 5733 5731 5729 5726 5721 5724 5725 5725 5723 5721 5720 5719 5718 5716 5714
5769 5766 5762 5759 5757 5754 5752 5751 5749 5748 5748 5747 5747 5745 5743 5742 5741 5739 5737 5736 5734 5733 5732 5731 5730 5730 5728 5728 5726 5725 5724 5722 5719 5716 5717 5717 5715 5714 5713 5711 5711 5711 5709
5767 5762 5758 5755 5752 5750 5748 5746 5745 5744 5744 5744 5742 5741 5739 5738 5737 5735 5733 5732 5731 5729 5728 5726 5725 5723 5722 5722 5720 5719 5718 5717 5715 5712 5710 5710 5710 5708 5706 5704 5704 5701 5701
5762 5758 5754 5750 5748 5746 5744 5742 5741 5740 5740 5739 5737 5736 5734 5733 5732 5730 5728 5727 5726 5724 5722 5721 5719 5718 5717 5716 5715 5713 5712 5710 5707 5705 5703 5702 5701 5700 5698 5695 5694 5693 5692
5757 5753 5750 5747 5744 5742 5739 5738 5736 5735 5735 5733 5732 5730 5729 5727 5725 5724 5723 5722 5720 5717 5715 5714 5712 5710 5708 5708 5708 5706 5705 5703 5701 5698 5695 5693 5691 5689 5688 5688 5685 5684 5682
5751 5748 5745 5742 5740 5737 5734 5733 5731 5730 5729 5727 5725 5723 5721 5719 5716 5715 5716 5715 5713 5710 5708 5706 5705 5702 5700 5698 5697 5695 5694 5693 5691 5690 5687 5683 5680 5679 5678 5677 5675 5673 5669
5746 5743 5740 5737 5734 5732 5730 5728 5727 5725 5722 5720 5717 5715 5712 5708 5707 5706 5706 5706 5705 5702 5700 5698 5697 5695 5694 5692 5688 5686 5683 5681 5680 5679 5676 5673 5670 5668 5667 5666 5663 5660 5655
5741 5738 5735 5732 5729 5726 5723 5722 5720 5719 5716 5712 5709 5707 5704 5700 5698 5698 5698 5697 5695 5693 5690 5688 5687 5685 5684 5683 5681 5678 5674 5671 5670 5668 5665 5662 5659 5657 5656 5655 5652 5649 5646
5736 5732 5730 5728 5724 5720 5718 5715 5714 5711 5708 5706 5703 5700 5697 5693 5690 5690 5690 5689 5686 5682 5679 5677 5677 5675 5672 5672 5672 5668 5664 5659 5655 5653 5650 5647 5645 5644 5643 5644 5641 5640 5636
5730 5727 5725 5722 5719 5715 5712 5709 5707 5704 5701 5699 5695 5692 5689 5685 5681 5682 5683 5683 5678 5674 5670 5666 5662 5661 5660 5661 5661 5657 5653 5649 5647 5644 5641 5638 5636 5633 5631 5629 5629 5627 5624
5725 5721 5719 5716 5713 5710 5706 5703 5700 5697 5694 5690 5687 5683 5679 5676 5673 5672 5672 5674 5671 5667 5662 5657 5651 5649 5648 5647 5646 5643 5639 5637 5637 5635 5632 5629 5626 5623 5620 5616 5613 5613 5610
5717 5714 5711 5709 5707 5704 5700 5696 5693 5690 5686 5682 5679 5675 5672 5667 5664 5662 5661 5660 5659 5656 5652 5647 5640 5638 5637 5635 5633 5629 5628 5628 5629 5626 5623 5619 5615 5611 5606 5603 5599 5598 5595
5709 5706 5703 5701 5698 5696 5693 5689 5687 5684 5682 5678 5675 5670 5666 5661 5655 5652 5650 5648 5647 5645 5639 5633 5630 5629 5628 5626 5621 5620 5621 5621 5618 5615 5611 5607 5603 5598 5596 5593 5591 5587 5585
5701 5697 5694 5691 5688 5686 5685 5684 5682 5679 5676 5672 5668 5664 5660 5655 5651 5648 5645 5640 5636 5635 5631 5625 5622 5621 5620 5616 5614 5613 5610 5606 5605 5602 5599 5596 5593 5590 5587 5584 5582 5580 5578
5693 5689 5686 5683 5679 5674 5670 5666 5667 5662 5662 5663 5660 5657 5652 5646 5636 5632 5636 5634 5631 5627 5625 5624 5621 5617 5613 5610 5606 5602 5599 5596 5593 5589 5587 5584 5581 5579 5575 5572 5569 5568 5566
5686 5682 5680 5676 5672 5668 5663 5655 5647 5647 5645 5645 5643 5642 5634 5629 5624 5622 5620 5617 5615 5614 5616 5614 5609 5605 5602 5599 5596 5591 5587 5583 5580 5577 5574 5571 5568 5566 5563 5560 5557 5555 5553
5680 5677 5674 5670 5667 5663 5660 5655 5646 5636 5632 5630 5628 5626 5622 5617 5614 5611 5609 5607 5606 5605 5607 5603 5598 5594 5590 5587 5584 5580 5575 5570 5566 5565 5561 5558 5555 5553 5551 5548 5544 5542 5540
5674 5669 5667 5664 5661 5658 5655 5651 5646 5641 5634 5624 5615 5612 5609 5606 5604 5602 5600 5600 5600 5599 5596 5592 5587 5583 5579 5575 5572 5567 5563 5559 5556 5552 5549 5545 5543 5541 5538 5535 5532 5527 5526
5666 5663 5660 5657 5655 5652 5648 5644 5639 5634 5628 5621 5614 5605 5599 5597 5595 5593 5593 5595 5593 5589 5585 5580 5576 5571 5567 5562 5558 5554 5551 5547 5542 5540 5537 5533 5531 5528 5525 5523 5520 5513 5513
5656 5652 5650 5649 5647 5643 5639 5636 5631 5626 5621 5617 5611 5605 5599 5596 5594 5590 5587 5585 5582 5577 5573 5568 5562 5558 5554 5550 5547 5543 5540 5536 5532 5529 5525 5522 5519 5517 5514 5511 5509 5507 5505
5648 5643 5640 5642 5639 5635 5631 5627 5622 5618 5613 5608 5602 5594 5589 5592 5588 5582 5578 5574 5570 5565 5560 5556 5551 5547 5542 5539 5536 5532 5528 5525 5520 5517 5513 5510 5508 5505 5502 5500 5498 5497 5494
5641 5637 5635 5632 5628 5624 5621 5617 5613 5608 5603 5597 5591 5585 5578 5581 5578 5572 5567 5561 5557 5552 5548 5544 5541 5535 5530 5527 5523 5520 5517 5512 5508 5504 5501 5499 5496 5494 5492 5490 5487 5486 5484
5633 5630 5625 5621 5617 5609 5609 5606 5603 5599 5594 5589 5584 5580 5575 5571 5566 5561 5555 5550 5544 5540 5536 5532 5528 5524 5519 5514 5510 5507 5503 5499 5495 5491 5489 5488 5487 5485 5483 5481 5479 5477 5476
5624 5621 5616 5612 5608 5604 5601 5596 5592 5588 5585 5580 5576 5571 5565 5559 5555 5549 5545 5539 5533 5529 5525 5521 5517 5512 5506 5502 5499 5494 5488 5483 5480 5480 5478 5478 5478 5477 5476 5474 5473 5471 5469
5615 5611 5607 5603 5599 5595 5591 5587 5583 5579 5575 5571 5566 5562 5557 5551 5545 5539 5535 5529 5524 5520 5515 5511 5506 5501 5496 5491 5486 5481 5476 5473 5470 5469 5469 5470 5470 5468 5468 5467 5466 5464 5462
5605 5602 5598 5594 5590 5586 5582 5578 5574 5570 5566 5562 5557 5552 5547 5542 5537 5532 5527 5521 5517 5511 5506 5502 5496 5491 5486 5482 5476 5471 5467 5465 5463 5461 5460 5462 5462 5462 5460 5460 5459 5458 5456